Location: Dealu Mare
(46.0500°N, 22.8167°E)
Time: 23:26:10
(UTC+00:00)

Cosmos 2278 Rocket - Pass Details

Date: 15 January 2026
Orbit: 839 x 846 km, 71.0° (Epoch: 13 February)

Event Time Altitude Azimuth Distance (km) Brightness Sun altitude
Rises 03:12:50 0° 171° (S) 3,377 5.4 -29.7°
Reaches altitude 10° 03:15:34 10° 160° (SSE) 2,448 4.8 -29.2°
Maximum altitude 03:20:16 28° 103° (ESE) 1,525 4.1 -28.4°
Drops below altitude 10° 03:25:00 10° 46° (NE) 2,466 5.1 -27.5°
Sets 03:27:45 0° 36° (NE) 3,407 5.8 -27.1°
